EW0591 Weather Reports


Display with metric or nautical units.
time (UTC)temp
F
wind
direction
speed
MPH
gust
MPH
rain 1hr
in
rain 24hr
in
rain mn
in
humidity
%
barometer
mb
20260906163353 55 208 1.0 1.0 0.07 0.94 0.94 96 1024.5
20260906162851 55 190 2.0 2.0 0.12 0.94 0.94 95 1024.2
20260906162349 55 199 3.0 3.0 0.05 0.93 0.93 95 1024.7
20260906161845 55 266 0.0 0.0 0.05 0.93 0.93 95 1024.5
20260906161344 55 209 0.0 0.0 0.00 0.92 0.92 95 1024.5
20260906160843 55 216 1.0 1.0 0.00 0.92 0.92 95 1024.7
20260906160337 55 205 2.0 2.0 0.00 0.92 0.92 95 1025.0
20260906155835 55 182 4.0 5.0 0.00 0.92 0.92 95 1024.7
20260906155329 55 226 3.0 3.0 0.00 0.92 0.92 95 1024.4
20260906154826 55 178 3.0 3.0 0.00 0.92 0.92 95 1024.4
20260906154320 55 224 0.0 0.0 0.00 0.92 0.92 95 1024.1
20260906153819 55 243 0.0 0.0 0.00 0.92 0.92 95 1023.7
20260906153318 54 236 1.0 2.0 0.00 0.92 0.92 95 1023.8
20260906152813 55 252 1.0 1.0 0.00 0.92 0.92 95 1023.8
20260906152308 54 252 0.0 0.0 0.00 0.92 0.92 95 1023.6
20260906151808 54 269 2.0 3.0 0.00 0.92 0.92 95 1023.7
20260906151303 55 241 1.0 2.0 0.00 0.92 0.92 95 1023.8
20260906150759 55 210 2.0 2.0 0.00 0.92 0.92 95 1023.8
20260906150254 54 248 2.0 2.0 0.00 0.92 0.92 95 1023.4
20260906145754 54 224 0.0 0.0 0.00 0.92 0.92 95 1023.7
20260906145252 54 178 1.0 1.0 0.00 0.92 0.92 95 1024.0
20260906144748 54 237 0.0 0.0 0.00 0.92 0.92 95 1023.8
20260906144242 54 221 0.0 0.0 0.00 0.92 0.92 95 1023.8
20260906143741 53 210 0.0 0.0 0.00 0.92 0.92 95 1024.2
20260906143239 53 202 0.0 0.0 0.00 0.92 0.92 95 1024.4
20260906142738 53 197 0.0 0.0 0.00 0.92 0.92 95 1024.4
20260906142234 53 229 0.0 0.0 0.00 0.92 0.92 95 1024.3
20260906141732 53 245 0.0 0.0 0.00 0.92 0.92 95 1024.1
20260906141227 53 238 0.0 0.0 0.00 0.92 0.92 95 1024.3
20260906140727 52 242 0.0 0.0 0.00 0.92 0.92 95 1024.2
20260906140222 52 206 0.0 0.0 0.00 0.92 0.92 95 1024.2
20260906135718 52 238 0.0 0.0 0.00 0.92 0.92 95 1024.2
20260906135215 52 224 0.0 0.0 0.00 0.92 0.92 95 1024.0
20260906134710 52 225 0.0 0.0 0.00 0.92 0.92 95 1023.8
20260906134205 52 235 0.0 0.0 0.00 0.92 0.92 95 1023.3
20260906133701 52 251 0.0 0.0 0.00 0.92 0.92 95 1023.2
20260906133155 53 276 0.0 0.0 0.00 0.92 0.92 95 1023.1
20260906132651 53 271 0.0 0.0 0.00 0.92 0.92 95 1023.2
20260906132147 53 169 0.0 1.0 0.00 0.92 0.92 95 1023.1
20260906131642 53 222 0.0 0.0 0.00 0.92 0.92 95 1023.1
20260906131137 53 225 0.0 0.0 0.00 0.92 0.92 95 1023.1
20260906130632 53 262 0.0 0.0 0.00 0.92 0.92 95 1023.0
20260906130127 53 264 0.0 0.0 0.00 0.92 0.92 95 1023.1
20260906125619 54 250 0.0 0.0 0.00 0.92 0.92 95 1023.1
20260906125118 54 254 1.0 1.0 0.00 0.92 0.92 95 1023.3
20260906124614 54 250 0.0 0.0 0.00 0.92 0.92 95 1023.7
20260906124109 54 233 1.0 1.0 0.00 0.92 0.92 95 1024.1
20260906123608 54 248 4.0 6.0 0.00 0.92 0.92 95 1024.1
20260906123103 53 38 1.0 1.0 0.00 0.92 0.92 95 1024.4
20260906122602 53 232 0.0 0.0 0.00 0.92 0.92 95 1024.1
20260906122058 54 252 2.0 3.0 0.00 0.92 0.92 95 1024.3
20260906121554 53 234 2.0 2.0 0.00 0.92 0.92 95 1023.8
20260906121051 54 223 0.0 0.0 0.00 0.92 0.92 95 1023.8
20260906120545 54 237 0.0 0.0 0.00 0.92 0.92 95 1023.2
20260906120043 54 189 2.0 2.0 0.00 0.92 0.92 95 1023.4
20260906115542 54 224 0.0 0.0 0.00 0.92 0.92 95 1023.2
20260906115038 54 298 0.0 0.0 0.00 0.92 0.92 95 1023.3
20260906114532 54 232 0.0 0.0 0.00 0.92 0.92 95 1023.4
20260906114028 54 204 0.0 0.0 0.00 0.92 0.92 95 1023.4
20260906113526 54 213 1.0 1.0 0.00 0.92 0.92 95 1023.7
20260906113022 55 241 1.0 1.0 0.00 0.92 0.92 94 1024.1
20260906112517 55 166 1.0 2.0 0.00 0.92 0.92 94 1023.8
20260906112013 55 275 1.0 1.0 0.00 0.92 0.92 94 1023.9
20260906111512 55 201 0.0 0.0 0.00 0.92 0.92 94 1023.8
20260906111008 55 218 0.0 0.0 0.00 0.92 0.92 94 1024.0
20260906110503 55 189 1.0 2.0 0.00 0.92 0.92 94 1024.7
20260906110001 55 173 4.0 5.0 0.00 0.92 0.92 94 1024.9
20260906105457 55 238 4.0 6.0 0.00 0.92 0.92 94 1024.1
20260906104953 55 36 2.0 2.0 0.00 0.92 0.92 94 1024.2
20260906104452 55 177 1.0 2.0 0.00 0.92 0.92 94 1025.1
20260906103951 55 202 4.0 5.0 0.00 0.92 0.92 94 1025.3
20260906103449 55 194 4.0 5.0 0.00 0.92 0.92 94 1025.7
20260906102945 55 183 4.0 6.0 0.00 0.92 0.92 94 1025.8
20260906102444 55 192 2.0 2.0 0.07 0.92 0.92 94 1025.1
20260906101939 55 242 4.0 5.0 0.12 0.92 0.92 94 1024.7
20260906101434 55 334 3.0 3.0 0.05 0.91 0.91 94 1024.1
20260906100929 55 226 5.0 7.0 0.00 0.90 0.90 94 1025.9
20260906100424 55 204 6.0 7.0 0.00 0.90 0.90 95 1026.3
20260906095918 55 203 5.0 6.0 0.00 0.90 0.90 95 1026.2
20260906095414 55 195 4.0 5.0 0.00 0.90 0.90 95 1025.7
20260906094913 56 248 0.0 0.0 0.00 0.90 0.90 95 1025.1
20260906094403 56 166 3.0 6.0 0.00 0.90 0.90 95 1025.4
20260906093859 56 225 4.0 5.0 0.12 0.90 0.90 95 1025.7
20260906093355 56 246 0.0 1.0 0.19 0.90 0.90 95 1025.2
20260906092855 56 78 1.0 1.0 0.12 0.89 0.89 95 1025.0
20260906092355 56 152 2.0 2.0 0.00 0.87 0.87 95 1026.4
20260906091850 56 223 3.0 3.0 0.07 0.87 0.87 94 1026.4
20260906091346 56 214 2.0 2.0 0.19 0.87 0.87 94 1026.1
20260906090843 56 320 2.0 2.0 0.24 0.86 0.86 94 1024.8
20260906090342 56 88 1.0 2.0 0.17 0.84 0.84 94 1026.0
20260906085836 56 198 3.0 3.0 0.17 0.82 0.82 94 1026.2
20260906085330 56 208 0.0 1.0 0.19 0.81 0.81 94 1026.3
20260906084825 56 194 4.0 6.0 0.12 0.79 0.79 94 1026.6
20260906084325 56 226 0.0 0.0 0.05 0.78 0.78 94 1026.1
20260906083819 56 160 2.0 2.0 0.07 0.77 0.77 94 1026.6
20260906083314 56 199 3.0 3.0 0.07 0.77 0.77 94 1026.1
20260906082809 56 217 3.0 5.0 0.07 0.76 0.76 94 1026.2
20260906082306 56 196 5.0 6.0 0.19 0.76 0.76 94 1026.1
20260906081800 56 152 1.0 2.0 0.40 0.75 0.75 94 1025.4
20260906081256 56 231 0.0 1.0 0.78 0.73 0.73 94 1026.0
20260906080752 56 202 0.0 0.0 0.54 0.68 0.68 94 1026.4
20260906080248 56 207 5.0 6.0 0.12 0.60 0.60 93 1026.6
20260906075741 56 177 4.0 5.0 0.07 0.59 0.59 93 1026.2
20260906075236 56 238 0.0 0.0 0.00 0.58 0.58 93 1025.7
20260906074731 56 226 1.0 1.0 0.00 0.58 0.58 93 1025.4
20260906074231 56 252 0.0 0.0 0.00 0.58 0.58 93 1024.8
20260906073730 56 225 0.0 0.0 0.00 0.58 0.58 93 1024.8
20260906073225 56 161 3.0 3.0 0.00 0.58 0.58 93 1024.4
20260906072721 55 207 0.0 1.0 0.00 0.58 0.58 93 1024.1
20260906072216 56 249 0.0 0.0 0.00 0.58 0.58 92 1023.6
20260906071712 56 64 1.0 2.0 0.00 0.58 0.58 92 1023.6
20260906071212 56 260 0.0 0.0 0.00 0.58 0.58 92 1023.4
20260906070709 56 21 4.0 5.0 0.00 0.58 0.58 92 1023.7
20260906070204 56 21 4.0 5.0 0.00 0.58 0.58 92 1023.6
20260906065704 56 325 5.0 7.0 0.00 0.58 0.58 92 1023.8
20260906065159 56 333 4.0 7.0 0.00 0.58 0.58 92 1024.3
20260906064655 56 259 2.0 2.0 0.00 0.58 0.58 92 1024.3
20260906064150 57 209 0.0 0.0 0.00 0.58 0.58 91 1024.2
20260906063645 57 326 4.0 5.0 0.00 0.58 0.58 91 1024.2
20260906063141 56 327 4.0 5.0 0.12 0.58 0.58 91 1023.9
20260906062637 57 281 0.0 1.0 2.88 0.58 0.58 89 1024.0
20260906062135 58 218 3.0 3.0 3.31 0.55 0.55 87 1023.7
20260906061632 63 335 2.0 2.0 1.02 0.17 0.17 75 1025.1
20260906061131 63 185 4.0 5.0 0.00 0.00 0.00 74 1025.1
20260906060628 62 253 1.0 2.0 0.00 0.00 0.00 75 1024.2
20260906060125 62 332 5.0 7.0 0.00 0.00 0.00 75 1023.3
20260906055621 61 358 5.0 6.0 0.00 0.02 0.02 77 1023.2
20260906055115 60 342 3.0 5.0 0.00 0.02 0.02 81 1023.7
20260906054610 60 300 0.0 1.0 0.00 0.02 0.02 81 1023.9
20260906054106 60 317 1.0 1.0 0.00 0.02 0.02 81 1024.0
20260906053602 60 290 0.0 0.0 0.00 0.02 0.02 81 1023.9
20260906053057 60 354 2.0 2.0 0.00 0.02 0.02 81 1023.9
20260906052552 60 232 0.0 0.0 0.00 0.02 0.02 80 1024.1
20260906052049 60 293 0.0 1.0 0.00 0.02 0.02 80 1024.1
20260906051545 61 107 0.0 1.0 0.00 0.02 0.02 78 1024.2
20260906051040 62 271 0.0 0.0 0.00 0.02 0.02 76 1024.1
20260906050535 62 344 2.0 2.0 0.00 0.02 0.02 76 1024.2
20260906050030 61 298 1.0 2.0 0.00 0.02 0.02 77 1024.0
20260906045528 61 350 1.0 2.0 0.00 0.02 0.02 77 1023.9
20260906045024 61 349 3.0 3.0 0.00 0.02 0.02 77 1023.8
20260906044520 61 18 3.0 3.0 0.00 0.02 0.02 78 1024.0
20260906044015 61 338 3.0 5.0 0.00 0.02 0.02 78 1023.9
20260906043511 61 314 1.0 1.0 0.00 0.02 0.02 78 1024.1
20260906043007 61 21 2.0 2.0 0.00 0.02 0.02 78 1023.9
20260906042505 61 22 5.0 6.0 0.00 0.02 0.02 77 1024.3
20260906042005 61 321 2.0 2.0 0.00 0.02 0.02 77 1024.1
20260906041502 62 327 2.0 2.0 0.00 0.02 0.02 77 1024.2
20260906041001 62 303 1.0 1.0 0.00 0.02 0.02 76 1024.3
20260906040456 62 341 2.0 2.0 0.00 0.02 0.02 75 1024.3
20260906035951 62 3 3.0 5.0 0.00 0.02 0.02 75 1024.2
20260906035447 62 359 3.0 3.0 0.00 0.02 0.02 74 1023.9
20260906034942 63 330 3.0 5.0 0.00 0.02 0.02 74 1024.1
20260906034437 63 331 4.0 6.0 0.00 0.02 0.02 73 1024.0
20260906033933 63 6 5.0 7.0 0.00 0.02 0.02 73 1024.0
20260906033433 63 352 8.0 9.0 0.00 0.02 0.02 73 1023.8
20260906032928 63 3 8.0 10.0 0.00 0.02 0.02 72 1023.8
20260906032424 64 342 6.0 7.0 0.00 0.02 0.02 72 1023.4
20260906031919 63 0 5.0 6.0 0.00 0.02 0.02 72 1023.6
20260906031414 63 1 8.0 10.0 0.00 0.02 0.02 73 1023.6
20260906030909 63 334 8.0 9.0 0.00 0.02 0.02 73 1023.6
20260906030404 63 313 7.0 11.0 0.00 0.02 0.02 72 1023.4
20260906025858 64 340 5.0 7.0 0.00 0.02 0.02 72 1023.4
20260906025353 64 353 6.0 7.0 0.00 0.02 0.02 71 1023.2
20260906024852 64 17 5.0 6.0 0.00 0.02 0.02 71 1023.7
20260906024351 64 328 4.0 5.0 0.00 0.02 0.02 71 1023.7
20260906023846 64 27 7.0 9.0 0.00 0.02 0.02 69 1023.3
20260906023343 65 334 5.0 6.0 0.00 0.02 0.02 69 1023.2
20260906022837 66 7 6.0 7.0 0.00 0.02 0.02 67 1023.2
20260906022338 67 339 7.0 11.0 0.00 0.02 0.02 65 1023.2
20260906021833 68 46 3.0 3.0 0.00 0.02 0.02 65 1022.9
20260906021332 67 350 2.0 2.0 0.00 0.02 0.02 64 1023.0
20260906020828 66 294 0.0 1.0 0.00 0.02 0.02 71 1023.0
20260906020327 67 218 0.0 0.0 0.00 0.02 0.02 70 1023.1
20260906015822 68 214 0.0 0.0 0.00 0.02 0.02 66 1022.9
20260906015320 68 145 0.0 1.0 0.00 0.02 0.02 63 1023.0
20260906014815 69 226 0.0 0.0 0.00 0.02 0.02 60 1023.0
20260906014310 68 218 0.0 0.0 0.00 0.02 0.02 61 1022.9
20260906013806 68 212 0.0 0.0 0.00 0.02 0.02 60 1022.9
20260906013301 69 252 0.0 0.0 0.00 0.02 0.02 59 1022.7
20260906012756 70 291 1.0 1.0 0.00 0.02 0.02 56 1022.5
20260906012251 69 357 7.0 8.0 0.00 0.02 0.02 56 1022.6
20260906011746 69 339 2.0 2.0 0.00 0.02 0.02 57 1022.5
20260906011246 70 306 2.0 2.0 0.00 0.02 0.02 57 1022.5
20260906010742 70 359 6.0 7.0 0.00 0.02 0.02 56 1022.2
20260906010238 70 338 2.0 2.0 0.00 0.02 0.02 56 1022.3
20260906005733 70 0 2.0 2.0 0.00 0.02 0.02 58 1022.2
20260906005232 70 344 5.0 6.0 0.00 0.02 0.02 57 1022.5
20260906004731 71 53 1.0 2.0 0.00 0.02 0.02 56 1022.1
20260906004227 71 350 4.0 6.0 0.00 0.02 0.02 56 1022.1
20260906003722 71 355 5.0 7.0 0.00 0.02 0.02 55 1021.9
20260906003217 72 48 6.0 7.0 0.00 0.02 0.02 53 1022.1
20260906002717 72 332 5.0 7.0 0.00 0.02 0.02 53 1022.1
20260906002212 73 336 6.0 7.0 0.00 0.02 0.02 52 1022.2
20260906001707 73 335 10.0 11.0 0.00 0.02 0.02 50 1022.1
20260906001207 73 344 7.0 7.0 0.00 0.02 0.02 50 1021.9
20260906000703 74 349 6.0 8.0 0.00 0.02 0.02 50 1022.0
20260906000158 75 319 10.0 10.0 0.00 0.02 0.02 48 1022.0
20260905235657 75 337 6.0 7.0 0.00 0.02 0.02 50 1021.9
20260905235152 75 7 4.0 5.0 0.00 0.02 0.02 51 1022.0
20260905234647 75 332 5.0 6.0 0.00 0.02 0.02 49 1021.8
20260905234143 74 345 5.0 6.0 0.00 0.02 0.02 50 1021.8
20260905233638 75 321 7.0 7.0 0.00 0.02 0.02 49 1021.8
20260905233137 75 310 8.0 9.0 0.00 0.02 0.02 49 1021.7
20260905232633 75 349 7.0 7.0 0.00 0.02 0.02 48 1021.8
20260905232128 75 21 5.0 6.0 0.00 0.02 0.02 50 1021.9
20260905231623 75 321 6.0 8.0 0.00 0.02 0.02 50 1022.0
20260905231119 75 349 8.0 10.0 0.00 0.02 0.02 50 1021.8
20260905230615 75 343 5.0 6.0 0.00 0.02 0.02 51 1022.0
20260905230113 74 358 6.0 7.0 0.00 0.02 0.02 51 1022.1
20260905225607 74 332 6.0 7.0 0.00 0.02 0.02 51 1022.2
20260905225102 74 334 7.0 8.0 0.00 0.02 0.02 51 1022.1
20260905224602 74 321 3.0 3.0 0.00 0.02 0.02 52 1022.3
20260905224101 74 336 8.0 9.0 0.00 0.02 0.02 51 1022.3
20260905223559 74 313 8.0 10.0 0.00 0.02 0.02 49 1022.3
20260905223055 75 321 6.0 7.0 0.00 0.02 0.02 49 1022.5
20260905222554 74 332 5.0 7.0 0.00 0.02 0.02 48 1022.6
20260905222050 74 299 5.0 6.0 0.00 0.02 0.02 47 1022.5
20260905221546 74 303 6.0 7.0 0.00 0.02 0.02 48 1022.6
20260905221042 74 2 5.0 6.0 0.00 0.02 0.02 50 1022.8
20260905220537 73 243 1.0 1.0 0.00 0.02 0.02 49 1023.0
20260905220033 74 0 4.0 5.0 0.00 0.02 0.02 47 1023.0
20260905215532 75 337 6.0 7.0 0.00 0.02 0.02 47 1023.3
20260905215029 76 277 0.0 1.0 0.00 0.02 0.02 46 1023.0
20260905214525 75 252 0.0 0.0 0.00 0.02 0.02 46 1023.2
20260905214019 75 258 0.0 0.0 0.00 0.02 0.02 46 1023.3
20260905213515 75 239 1.0 2.0 0.00 0.02 0.02 45 1023.3
20260905213010 75 224 2.0 2.0 0.00 0.02 0.02 46 1023.4
20260905212505 72 245 0.0 0.0 0.00 0.02 0.02 49 1023.7
20260905212004 73 267 1.0 1.0 0.00 0.02 0.02 49 1023.6
20260905211500 73 33 1.0 2.0 0.00 0.02 0.02 48 1023.7
20260905210955 72 212 0.0 0.0 0.00 0.02 0.02 50 1023.8
20260905210451 72 144 2.0 3.0 0.00 0.02 0.02 54 1023.9
20260905205950 73 235 0.0 0.0 0.00 0.02 0.02 50 1024.0
20260905205445 74 132 4.0 5.0 0.00 0.02 0.02 48 1023.9
20260905204943 73 231 0.0 0.0 0.00 0.02 0.02 46 1023.9
20260905204434 72 209 0.0 1.0 0.00 0.02 0.02 49 1023.9
20260905203933 72 130 5.0 6.0 0.00 0.02 0.02 48 1024.0
20260905203428 72 243 0.0 0.0 0.00 0.02 0.02 49 1024.0
20260905202924 72 245 0.0 0.0 0.00 0.02 0.02 50 1024.3
20260905202419 72 248 2.0 2.0 0.00 0.02 0.02 51 1024.2
20260905201914 72 163 0.0 1.0 0.00 0.02 0.02 49 1024.3
20260905201410 72 232 1.0 1.0 0.00 0.02 0.02 50 1024.4
20260905200909 71 77 1.0 2.0 0.00 0.02 0.02 52 1024.4
20260905200405 72 226 0.0 1.0 0.00 0.02 0.02 54 1024.3
20260905195903 71 69 5.0 6.0 0.00 0.02 0.02 50 1024.4
20260905195359 70 217 1.0 1.0 0.00 0.02 0.02 52 1024.5
20260905194855 72 196 3.0 5.0 0.00 0.02 0.02 50 1024.7
20260905194354 69 232 1.0 2.0 0.00 0.02 0.02 56 1024.7
20260905193854 69 230 2.0 3.0 0.00 0.02 0.02 55 1024.7
20260905193348 69 158 3.0 3.0 0.00 0.02 0.02 53 1024.9
20260905192844 69 175 0.0 1.0 0.00 0.02 0.02 53 1024.7
20260905192340 69 204 4.0 5.0 0.00 0.02 0.02 54 1024.7
20260905191839 69 200 3.0 3.0 0.00 0.02 0.02 57 1024.9
20260905191338 68 268 3.0 3.0 0.00 0.02 0.02 57 1025.0
20260905190837 68 214 5.0 6.0 0.00 0.02 0.02 57 1025.1
20260905190337 68 220 2.0 3.0 0.00 0.02 0.02 58 1025.1
20260905185835 68 237 0.0 0.0 0.00 0.02 0.02 58 1025.1
20260905185331 67 194 1.0 2.0 0.00 0.02 0.02 58 1025.2
20260905184830 68 245 2.0 2.0 0.00 0.02 0.02 59 1025.3
20260905184330 67 181 3.0 3.0 0.00 0.02 0.02 59 1025.3
20260905183828 68 242 3.0 3.0 0.00 0.02 0.02 60 1025.5
20260905183323 67 235 0.0 0.0 0.00 0.02 0.02 61 1025.3
20260905182818 66 146 3.0 5.0 0.00 0.02 0.02 63 1025.5
20260905182318 67 201 1.0 2.0 0.00 0.02 0.02 62 1025.5
20260905181813 67 179 2.0 3.0 0.00 0.02 0.02 66 1025.4
20260905181312 66 139 1.0 2.0 0.00 0.02 0.02 66 1025.9
20260905180812 65 255 0.0 0.0 0.00 0.02 0.02 68 1025.9
20260905180307 65 1 2.0 2.0 0.00 0.02 0.02 68 1025.8
20260905175802 66 128 2.0 2.0 0.00 0.02 0.02 65 1026.0
20260905175256 66 84 2.0 3.0 0.00 0.02 0.02 66 1026.1
20260905174752 66 177 0.0 1.0 0.00 0.02 0.02 65 1026.1
20260905174248 66 231 0.0 0.0 0.00 0.02 0.02 68 1026.2
20260905173744 65 121 5.0 8.0 0.00 0.02 0.02 69 1026.2
20260905173239 64 201 2.0 2.0 0.00 0.02 0.02 70 1026.2
20260905172738 64 200 1.0 2.0 0.00 0.02 0.02 71 1026.0
20260905172238 64 207 3.0 3.0 0.00 0.02 0.02 71 1026.4
20260905171734 63 226 2.0 3.0 0.00 0.02 0.02 71 1026.2
20260905171230 63 244 0.0 0.0 0.00 0.02 0.02 71 1026.4
20260905170726 63 242 0.0 0.0 0.00 0.02 0.02 74 1026.4
20260905170222 62 245 0.0 0.0 0.00 0.02 0.02 75 1026.3
20260905165721 62 273 0.0 0.0 0.00 0.02 0.02 73 1026.3
20260905165217 60 226 0.0 0.0 0.00 0.02 0.02 78 1026.5
20260905164717 59 279 0.0 1.0 0.00 0.02 0.02 83 1026.4
20260905164217 59 269 1.0 1.0 0.00 0.02 0.02 83 1026.4